Location: Unspecified
(0.0000°N, 0.0000°E)
Time: 21:40:39
(UTC+00:00)

OBJECT E - Visible Passes

Search period start: 08 March 2026 00:00
Search period end: 18 March 2026 00:00
Orbit: 1092 x 1093 km, 50.0° (Epoch: 3 March)

Date Brightness Start Highest point End Pass type
(mag) Time Alt. Az. Time Alt. Az. Time Alt. Az.
8 Mar ? 05:24:38 10° N 05:30:06 24° NE 05:35:35 10° ESE visible
8 Mar ? 18:50:20 10° SW 18:57:21 65° NW 19:04:21 10° NNE visible
9 Mar ? 04:36:59 10° NNE 04:40:01 13° NE 04:43:02 10° ENE visible
9 Mar ? 19:55:48 10° W 19:59:41 15° NW 20:03:34 10° NNW visible
10 Mar ? 05:35:29 10° NNW 05:42:24 57° NE 05:49:19 10° SE visible
10 Mar ? 19:03:47 10° WSW 19:09:37 27° NW 19:15:27 10° N visible
11 Mar ? 04:46:14 10° N 04:52:27 33° NE 04:58:37 10° ESE visible
12 Mar ? 03:57:44 10° N 04:02:24 19° NE 04:07:03 10° E visible
12 Mar ? 05:47:38 10° NW 05:54:36 63° SW 06:01:37 10° SSE visible
12 Mar ? 19:21:01 10° WNW 19:22:06 10° NW 19:23:11 10° NW visible
13 Mar ? 04:57:37 10° NNW 05:04:41 77° NE 05:11:46 10° SE visible
13 Mar ? 18:27:01 10° W 18:31:58 20° NW 18:36:54 10° N visible
14 Mar ? 04:10:24 21° N 04:14:44 44° NE 04:21:25 10° ESE visible
15 Mar ? 03:24:01 25° NE 03:24:45 25° NE 03:30:24 10° ESE visible
15 Mar ? 05:11:12 15° WNW 05:16:54 46° SW 05:23:39 10° SSE visible
16 Mar ? 02:37:35 11° ENE 02:37:35 11° ENE 02:38:07 10° E visible
16 Mar ? 04:24:47 48° NW 04:26:58 80° SW 04:34:04 10° SSE visible
17 Mar ? 03:38:17 53° E 03:38:17 53° E 03:44:00 10° SE visible
17 Mar ? 05:25:29 13° W 05:29:15 19° SW 05:34:06 10° S visible
